Dewpoint
71 71 73 71 72 72 70 68 57 61 60 54 55 58 57 64 64 63 62 63 62 64 67 64 62 62 62 60 60 64 63 58 61 54 50 65 70 71 72 72 73 73 73 74 74 75 75 76 77 76 77 77 76 76 76 77 77 77 77 77 77 77 77 76 76 76 75 76 75 75 75 75 75 75 75 75 75 75 74 74 74 74 74 74 74 74 74 74 74 74 74 74 74 74 74 74 74
70 72 73 73 70 70 64 67 58 57 57 55 55 60 60 62 62 62 61 63 65 63 63 64 63 65 65 64 63 61 62 65 66 65 67 69 71 71 72 72 73 73 73 74 74 75 75 76 76 77 77 76 76 76 77 77 77 77 77 77 77 76 76 76 75 75 75 75 76 75 75 75 75 75 75 75 75 74 74 74 74 74 74 75 74 74 74 74 75 74 74 74 74 73 73 74 74
71 72 72 74 71 69 67 66 56 54 53 50 53 60 64 62 61 63 63 63 64 64 64 65 65 65 65 62 60 62 59 66 66 67 68 70 69 70 72 73 73 73 73 74 74 75 75 76 76 77 76 76 76 77 77 77 77 77 77 77 77 76 76 76 76 75 75 75 75 75 75 75 76 76 75 75 75 74 75 74 74 74 74 74 74 74 75 74 75 75 74 74 74 73 74 74 74
70 71 70 71 65 69 63 62 59 55 50 52 53 59 61 62 62 64 65 64 63 63 64 65 63 65 63 62 62 64 64 64 66 66 66 68 68 71 72 73 74 73 73 74 74 75 75 75 77 77 76 76 76 77 77 77 77 77 77 77 76 76 76 76 76 76 75 75 75 75 75 75 75 75 75 75 75 75 75 75 74 74 74 74 74 74 74 75 75 75 75 74 74 74 73 73 73
70 71 72 70 67 62 62 60 59 58 53 53 52 59 61 62 64 63 62 65 62 63 63 64 61 64 64 63 64 61 63 66 66 67 67 69 71 72 72 73 73 73 73 74 74 74 75 76 77 77 77 76 76 77 77 77 77 77 76 76 76 76 76 76 76 76 76 76 75 75 76 76 75 74 74 75 75 75 74 75 75 74 74 74 74 75 74 74 75 74 74 74 74 73 74 74 73
70 70 71 71 64 69 65 58 57 56 57 60 58 59 62 62 64 63 64 66 66 64 62 63 61 63 62 63 65 64 65 63 66 67 68 70 71 72 73 73 73 73 73 73 73 74 75 77 77 77 76 76 77 77 77 77 77 76 76 76 76 76 76 76 76 76 76 75 75 75 75 75 75 75 75 74 75 75 74 75 75 75 75 75 74 75 75 75 74 74 74 74 74 74 74 74 74
68 69 70 69 68 68 59 57 55 56 59 60 61 62 64 64 64 64 62 63 64 62 63 61 62 62 61 64 64 66 68 67 66 66 69 71 72 72 73 72 72 72 73 73 73 74 75 77 77 77 76 76 77 77 77 77 76 76 76 76 76 76 76 76 76 76 76 76 75 75 75 75 74 75 75 75 75 75 75 75 75 74 74 74 75 74 75 75 74 74 74 74 74 74 74 74 73
72 69 66 63 61 62 58 58 57 58 59 60 62 63 64 62 64 63 60 61 59 61 62 61 61 62 62 64 62 67 67 68 68 70 70 71 72 72 72 72 72 72 72 72 73 74 76 76 77 77 77 76 77 77 77 76 76 76 76 76 76 76 76 76 76 76 76 76 76 76 75 75 75 75 75 75 75 75 74 74 74 74 74 74 75 74 75 75 75 74 74 73 74 73 73 73 73
70 69 69 64 59 60 58 56 56 60 58 60 61 64 64 62 63 62 60 61 60 61 60 60 61 59 62 63 64 67 68 70 70 71 70 71 71 71 71 71 71 72 72 72 73 75 76 76 77 77 77 76 77 76 76 76 76 77 77 76 77 76 76 76 75 76 75 75 75 76 75 75 75 75 75 75 75 75 74 74 74 74 73 73 73 74 74 75 74 74 74 74 74 74 74 74 74
70 68 63 61 59 54 55 54 51 55 60 63 63 64 64 62 63 65 60 59 60 59 61 62 62 62 63 62 64 67 68 70 70 70 70 71 71 71 71 71 71 72 72 73 74 75 76 76 77 77 77 76 77 76 77 77 77 76 76 76 76 76 76 76 76 75 75 75 75 75 75 75 75 75 74 74 74 75 74 74 74 74 73 73 74 74 74 74 74 75 74 74 74 74 74 74 74
65 68 67 61 56 53 51 53 55 57 59 62 63 63 67 63 63 64 61 59 60 61 62 63 62 62 63 63 65 68 69 69 69 69 70 70 70 70 70 71 72 72 72 73 74 75 76 75 76 77 77 77 77 76 77 77 77 76 76 76 76 75 75 75 75 75 75 75 75 75 75 74 74 75 74 74 74 74 74 74 74 74 73 74 74 74 74 74 74 74 74 75 75 74 74 73 74
64 64 64 58 55 52 53 54 55 57 61 63 61 64 68 61 62 60 60 59 61 61 61 62 62 64 63 63 65 68 68 68 69 69 70 70 70 70 71 71 72 73 73 74 75 75 76 76 75 76 77 77 77 77 77 77 76 76 76 76 76 75 75 75 75 75 75 75 75 75 75 74 74 74 74 75 75 75 75 75 75 75 75 75 74 74 74 74 75 75 75 75 75 74 74 74 74
64 64 61 55 53 55 57 56 56 57 58 57 59 62 64 63 60 60 61 60 61 61 60 62 63 63 61 62 66 67 67 68 69 69 69 69 70 70 71 72 73 73 74 75 75 75 75 76 75 76 76 76 76 76 77 77 76 76 76 76 75 75 75 75 75 75 74 74 75 75 75 75 75 75 75 75 75 75 75 75 75 75 75 75 73 74 75 75 75 75 75 75 75 74 74 73 73
65 64 61 54 58 57 56 56 56 52 53 57 64 62 64 62 63 63 63 60 60 60 62 64 63 64 63 64 66 65 66 68 69 69 69 69 70 71 72 72 73 74 74 74 75 75 75 75 75 75 75 75 75 75 76 77 76 76 76 75 75 75 75 75 75 75 74 74 75 75 75 75 75 75 75 75 75 75 75 75 75 75 75 75 75 75 75 75 75 75 75 75 75 74 74 74 74
64 66 61 56 56 55 56 53 54 54 52 59 63 64 65 66 66 65 63 60 61 63 64 64 64 62 61 62 63 64 66 68 69 68 68 69 70 71 72 72 73 74 74 74 75 75 75 75 75 75 75 75 75 75 75 76 76 76 76 75 75 75 75 75 75 74 74 75 75 75 75 75 75 75 76 75 75 75 75 75 74 74 75 75 75 75 75 75 75 75 75 75 75 74 74 74 74
64 64 61 57 54 53 53 52 54 53 51 58 62 63 64 63 64 62 64 67 64 63 63 62 64 61 63 62 63 65 67 68 68 67 68 69 71 72 72 72 73 74 74 74 74 75 75 75 75 75 75 75 75 75 75 76 76 77 76 76 75 75 75 75 75 75 75 75 75 75 76 76 75 75 76 75 75 75 75 75 74 74 74 75 75 75 75 74 75 75 75 75 74 74 74 74 74
63 63 60 56 54 54 53 49 51 48 52 59 64 62 60 60 62 63 64 66 61 61 61 63 63 64 63 63 65 66 67 68 68 67 67 69 71 71 72 72 73 73 74 74 74 75 75 74 74 74 75 75 76 75 75 75 76 77 77 76 76 76 75 75 75 75 75 75 75 75 76 76 75 75 74 75 74 76 74 74 74 74 74 74 75 73 73 74 73 73 73 73 74 73 73 73 73
63 61 59 57 57 55 54 51 51 52 54 59 61 60 60 59 61 61 62 62 62 61 61 63 64 64 64 65 66 67 67 67 66 66 67 69 70 71 71 71 72 72 73 74 74 75 74 74 74 75 75 75 75 76 76 76 76 77 76 75 76 75 75 75 75 75 75 75 75 75 75 76 74 73 74 75 76 74 75 75 74 74 74 74 75 74 73 73 72 72 73 73 74 74 75 75 75
59 60 58 56 56 56 55 54 54 54 54 59 60 60 59 58 60 60 59 60 60 59 60 62 62 63 64 65 66 67 67 66 66 66 67 68 69 70 70 70 70 71 72 73 74 74 74 74 74 75 75 75 75 75 76 76 76 76 75 75 75 76 76 76 75 76 75 74 75 75 76 75 74 75 75 76 76 76 77 75 75 74 74 74 75 75 74 73 70 72 72 74 73 73 76 73 73
59 58 56 57 58 55 53 53 54 54 56 59 59 60 58 59 59 60 58 59 60 59 60 61 62 62 63 65 66 66 66 66 67 66 67 68 69 69 69 69 70 71 71 72 73 74 74 74 74 75 75 75 75 75 76 75 75 75 75 75 75 75 75 76 75 75 75 74 75 74 75 75 75 74 77 75 75 75 75 77 74 75 74 75 75 76 76 75 73 75 73 73 77 78 74 74 74
59 59 57 57 58 56 55 53 54 55 57 58 58 59 58 58 58 58 58 59 59 59 61 61 62 63 63 64 66 66 66 66 67 67 67 68 69 69 69 69 69 70 71 72 73 74 74 74 74 74 75 75 75 75 75 75 75 75 75 75 75 75 75 75 75 75 74 74 74 75 75 75 75 74 74 75 75 74 73 73 74 74 75 74 78 74 74 75 76 74 74 76 74 75 74 74 74
53 58 59 58 55 55 56 55 53 55 57 58 58 58 57 58 58 57 58 58 58 59 61 62 63 64 64 64 65 66 65 65 66 67 67 68 68 69 69 69 70 70 71 71 72 73 73 74 74 74 75 75 75 75 75 76 76 75 75 75 75 74 75 75 75 75 75 74 75 75 75 75 75 74 74 74 74 73 73 73 73 73 74 75 76 74 74 74 73 73 73 74 75 74 74 74 74
50 51 53 56 56 53 57 53 52 56 57 57 57 57 57 57 56 57 56 58 59 60 61 63 64 64 64 64 65 64 65 65 66 66 67 67 68 68 69 69 69 69 71 71 72 73 73 74 74 74 74 74 74 75 75 76 75 75 75 75 75 74 75 75 75 74 75 74 75 75 75 74 74 74 74 74 74 73 73 72 73 73 73 74 76 74 73 74 74 73 73 74 73 74 74 73 74
49 49 51 51 51 52 54 52 53 55 57 55 56 57 55 55 53 55 55 56 58 60 62 63 64 65 65 64 64 64 65 65 66 66 67 67 68 68 69 68 69 69 70 70 71 72 73 73 74 74 74 74 74 74 74 75 75 75 75 76 76 75 75 75 75 75 75 75 75 75 76 74 74 74 74 74 74 73 73 72 72 73 74 74 75 74 73 73 73 73 73 74 74 73 73 73 73
47 48 50 51 51 49 49 51 51 54 55 54 55 54 54 53 52 53 53 55 59 60 62 63 64 64 64 64 64 65 65 66 66 67 67 68 68 69 69 69 68 69 69 70 71 72 73 73 73 73 73 74 74 74 74 75 75 75 75 75 75 76 75 75 75 75 74 75 75 75 76 74 73 74 74 74 73 74 74 73 72 73 74 74 74 74 74 73 72 73 74 74 73 73 73 72 72
46 48 50 51 50 50 48 48 50 51 53 53 53 53 53 53 53 52 53 58 60 61 62 63 64 64 64 64 64 64 65 66 67 67 67 68 68 68 69 68 68 68 68 69 70 71 72 73 73 73 73 73 73 73 74 74 74 74 74 74 75 76 75 75 74 74 74 74 75 75 75 75 73 73 74 73 73 73 74 73 74 73 74 73 73 73 74 73 72 73 73 74 74 72 72 72 73
48 47 48 49 49 48 47 48 49 50 50 50 50 50 51 52 51 50 57 59 61 62 62 63 63 63 63 63 64 64 65 65 66 67 67 67 68 68 68 68 68 68 68 68 69 71 72 72 73 73 73 73 73 72 73 73 73 73 74 74 74 74 75 75 75 74 74 73 74 75 75 75 74 73 73 73 73 73 73 73 74 73 73 73 73 73 73 74 73 73 73 73 73 72 71 72 74
44 45 46 46 46 47 47 48 49 49 49 50 49 48 49 51 51 49 58 60 61 61 62 63 63 63 64 64 64 65 65 66 66 67 67 67 67 67 68 68 68 67 67 68 69 70 71 72 72 73 72 73 72 72 73 72 72 72 73 73 73 73 74 74 74 73 74 73 74 74 75 75 75 73 73 73 73 73 73 73 73 74 74 73 74 73 72 73 74 74 74 74 73 73 73 73 74
45 46 44 45 45 44 43 43 49 49 48 49 50 48 47 48 48 51 59 60 60 61 62 62 63 63 63 64 64 65 65 66 66 66 66 67 67 67 68 68 68 67 67 68 69 70 71 71 72 72 72 72 72 71 71 71 72 72 72 72 72 73 73 73 73 73 72 73 74 74 74 74 75 73 72 73 75 73 73 73 73 74 74 74 74 73 73 73 74 75 75 76 75 73 72 71 73
43 43 43 43 42 41 40 43 48 49 48 50 48 45 46 47 48 57 59 59 60 60 61 62 62 63 63 63 64 65 65 66 66 66 66 67 67 67 68 68 68 68 67 68 69 70 71 71 71 72 72 72 72 71 71 70 70 71 71 71 72 72 72 72 72 72 72 72 74 74 74 74 75 74 72 72 73 73 73 72 72 73 74 74 73 73 73 73 74 73 72 73 75 74 71 71 71
36 37 40 39 38 37 38 43 49 48 48 49 47 44 45 46 48 58 59 59 59 59 60 61 62 62 62 63 63 64 64 65 65 66 66 66 67 67 68 68 68 68 68 68 69 70 71 71 71 71 72 71 72 71 71 70 70 70 70 70 70 71 71 71 71 72 72 72 73 74 74 74 75 74 73 72 73 73 72 72 72 73 73 74 73 74 75 75 73 72 74 71 71 71 71 73 72
33 30 31 33 35 35 35 37 48 47 47 48 46 44 44 45 52 58 59 59 59 59 60 60 61 61 62 62 62 63 64 64 65 65 66 66 67 67 67 68 68 68 68 68 69 70 70 70 71 70 71 71 71 71 71 70 69 69 70 72 70 70 71 71 71 71 72 72 73 73 74 74 75 75 74 73 72 72 72 72 72 73 74 74 73 75 75 74 73 73 74 72 70 71 72 70 69
31 29 32 32 33 33 33 35 43 47 46 47 45 43 44 47 55 58 59 59 59 58 59 59 60 60 61 61 61 62 63 63 64 65 65 66 66 67 67 67 68 68 68 68 68 69 70 70 71 70 70 71 71 71 71 70 69 68 69 70 70 70 70 71 71 71 72 72 73 73 73 74 75 75 74 73 73 72 72 72 72 73 75 74 74 75 74 74 73 74 73 75 71 70 70 70 67
29 32 29 30 32 34 33 36 38 44 45 45 45 42 42 49 56 58 58 59 58 58 58 59 59 59 60 60 60 62 62 62 63 64 65 66 66 67 67 69 68 68 68 68 68 69 70 70 70 70 70 70 71 71 71 70 69 68 68 70 72 70 70 70 71 71 72 72 73 73 73 74 74 75 74 73 73 72 72 72 73 74 75 74 74 74 74 74 73 73 71 73 73 71 70 68 64
30 30 32 31 32 33 33 34 36 42 44 44 44 43 43 51 56 57 58 58 58 58 58 58 59 59 59 59 60 61 61 62 62 64 65 66 66 67 67 67 67 67 67 68 68 69 69 70 70 70 70 70 71 71 71 70 70 68 68 70 71 71 70 70 71 71 71 73 73 73 73 74 74 74 74 74 73 73 73 73 73 74 75 74 74 74 74 74 74 73 71 71 73 73 71 67 64
29 29 30 32 30 31 31 33 36 41 43 42 43 43 43 51 56 57 57 58 58 58 59 59 59 59 59 59 59 60 61 61 62 63 64 65 66 67 67 67 67 67 67 68 68 68 69 69 70 70 70 70 70 71 71 71 70 69 68 70 71 71 70 71 71 71 72 72 73 73 73 74 74 74 74 74 73 74 73 73 73 75 75 74 73 73 72 73 73 72 71 71 70 70 69 65 65
31 30 30 30 30 30 31 31 34 39 41 41 41 42 45 50 55 56 57 58 58 58 58 58 59 59 59 59 59 60 61 61 62 63 64 65 65 66 67 67 67 67 68 68 68 68 68 68 69 69 70 70 70 70 71 70 70 69 69 69 69 71 71 70 71 71 72 73 73 73 73 73 74 74 74 74 73 75 73 73 74 75 75 74 74 73 73 73 72 72 73 73 70 68 66 64 64
26 27 30 30 31 30 31 30 32 36 38 38 40 39 46 49 53 55 57 57 57 57 58 58 58 59 59 59 59 60 60 61 62 62 63 64 65 66 66 67 68 67 67 68 68 68 68 68 69 69 70 70 70 70 71 71 70 69 69 68 69 70 71 71 70 70 72 73 73 73 73 73 74 73 75 74 73 74 73 73 73 75 75 74 74 74 72 75 74 72 72 70 70 69 67 65 64
25 25 26 27 27 31 30 30 30 31 36 35 39 39 45 48 51 54 55 56 57 57 58 58 58 58 59 59 59 60 60 61 61 62 62 63 64 65 66 67 67 67 67 68 68 68 68 68 69 69 69 70 70 70 71 71 71 70 70 69 69 70 71 71 71 71 72 72 73 74 74 73 74 74 74 74 73 73 73 73 73 74 75 75 74 73 73 74 73 72 71 70 68 69 69 68 62
25 24 24 24 27 27 27 30 31 29 34 34 37 37 40 47 50 52 54 55 56 57 57 58 58 58 58 59 59 60 60 60 61 61 61 62 63 64 65 66 67 67 68 68 68 68 68 69 69 69 70 70 70 70 71 71 71 71 71 70 70 70 70 72 71 71 71 72 73 74 74 74 74 74 74 74 74 73 73 73 73 74 75 74 74 73 73 73 72 71 71 71 68 66 66 63 68
25 24 23 23 24 25 27 28 26 27 26 28 29 40 40 44 47 49 51 54 54 55 57 57 58 58 58 58 59 60 60 60 61 61 61 62 63 64 64 65 66 67 67 68 68 68 68 68 69 69 70 70 70 71 71 71 71 71 71 71 71 71 71 71 71 71 70 71 72 73 73 74 74 74 74 74 74 73 73 73 74 74 74 74 74 73 73 73 73 72 72 72 68 67 65 64 65
26 25 24 23 24 24 24 26 25 25 24 26 27 30 37 43 46 47 49 51 52 54 55 56 57 57 57 57 58 59 60 60 60 61 61 62 62 63 64 65 65 66 67 68 68 68 68 69 69 70 70 70 70 70 71 71 71 70 70 69 69 69 69 69 69 69 70 70 71 72 73 74 74 74 74 74 74 74 73 73 74 74 74 75 74 74 74 73 72 72 72 72 70 68 67 62 61
25 25 25 24 24 23 23 24 25 25 24 28 32 25 30 41 44 46 47 49 50 51 53 55 56 56 56 57 57 58 59 59 60 60 61 61 62 62 63 64 65 65 66 68 68 69 69 69 69 70 70 70 71 70 71 71 70 70 70 69 69 69 68 69 70 70 70 70 72 72 73 74 74 74 74 74 74 74 73 73 74 75 75 75 75 74 73 73 73 73 72 71 71 71 65 62 61
25 26 25 24 23 23 23 22 23 25 31 29 25 33 33 35 44 46 47 48 49 50 51 53 54 55 56 56 57 58 58 59 59 60 60 61 62 62 62 64 64 65 66 67 68 69 69 69 69 70 71 71 71 71 71 71 70 70 70 69 69 69 68 68 69 69 70 71 72 72 73 74 74 74 74 74 74 74 74 73 74 75 75 75 75 74 74 74 74 73 73 72 71 71 68 65 62
26 24 24 23 23 23 23 21 22 25 24 22 23 27 25 34 40 46 47 47 48 48 49 51 52 54 55 56 56 57 58 58 59 59 60 60 61 62 62 63 64 64 66 66 67 68 69 69 69 70 70 71 71 71 71 71 71 70 70 69 69 69 69 69 70 70 70 71 71 72 73 73 74 74 74 74 74 74 75 74 74 74 75 75 76 75 74 74 74 73 73 72 71 70 69 66 63
27 24 24 23 22 22 22 22 22 26 24 21 23 23 22 25 37 43 47 46 47 48 49 50 51 52 53 55 56 57 58 58 59 59 59 60 61 61 62 63 63 64 65 67 67 68 68 68 69 69 70 71 71 71 71 71 71 71 70 69 69 69 70 69 69 69 69 70 70 72 73 73 74 74 74 74 74 74 74 74 74 74 74 75 76 75 74 74 74 74 73 73 72 71 70 68 64
29 26 25 23 22 23 26 25 25 28 21 21 21 22 21 20 29 41 45 46 47 47 49 49 50 51 52 54 55 56 57 58 58 58 59 59 60 61 62 62 63 64 65 66 67 67 68 68 68 69 69 70 71 71 71 71 71 71 70 69 69 69 69 69 69 69 69 69 69 71 72 73 73 74 74 74 74 74 74 75 75 74 74 75 76 75 75 75 75 74 74 73 72 71 70 69 68
29 27 26 27 27 28 26 28 29 21 19 22 21 21 21 20 25 32 45 47 47 47 47 49 49 50 51 53 54 56 57 58 58 58 58 59 59 60 61 62 62 63 64 65 66 67 67 68 68 68 69 70 70 71 71 71 70 70 70 70 69 69 69 69 68 68 68 68 69 70 71 72 73 73 74 74 74 74 74 74 75 75 75 75 75 75 75 75 75 75 74 73 73 72 70 70 68
29 27 27 25 24 23 22 22 19 21 20 26 21 19 20 20 21 23 41 47 47 47 47 48 49 50 51 52 54 55 57 57 58 58 58 58 58 59 60 61 62 63 64 65 66 66 67 67 67 68 68 70 70 70 71 70 70 70 70 70 69 69 69 69 69 68 68 68 69 69 71 72 72 73 73 73 73 74 74 74 74 74 75 75 75 75 75 75 75 75 74 73 73 72 71 69 68
27 27 26 25 22 21 21 21 20 18 23 22 20 20 17 25 22 21 33 45 47 48 48 48 49 49 50 52 53 55 56 57 58 58 58 58 58 59 60 61 61 62 63 65 65 66 67 67 67 68 68 69 70 70 70 70 70 70 70 70 70 70 69 69 69 68 68 68 69 69 70 71 72 72 73 73 73 74 74 74 74 74 75 75 75 75 75 75 75 75 74 74 73 73 71 69 68
27 27 25 25 24 22 21 20 17 17 20 18 18 16 20 16 22 20 24 40 46 48 48 48 48 49 50 52 53 55 56 57 58 58 58 58 59 59 60 60 61 62 62 64 65 66 67 67 67 68 68 69 70 70 70 70 70 70 70 70 70 70 69 69 69 69 68 68 69 69 69 71 71 72 72 73 73 74 74 74 74 74 74 75 75 75 75 75 75 75 74 74 74 73 71 69 68
26 27 26 24 23 28 21 23 20 19 18 16 18 18 23 18 30 37 25 25 40 46 47 48 47 48 50 52 53 54 56 57 58 58 59 59 59 59 59 60 61 61 62 63 64 66 66 67 67 68 68 68 69 70 70 70 70 70 70 70 70 70 70 69 69 70 69 69 69 69 69 70 71 72 72 73 73 73 73 73 74 74 74 75 75 75 75 75 74 74 74 74 74 74 72 70 68
24 25 24 24 23 21 23 34 30 25 20 14 28 19 19 21 17 14 22 25 32 40 45 46 46 47 50 51 53 54 55 56 58 58 59 59 59 59 59 60 60 61 62 63 64 65 66 67 67 67 68 68 69 70 70 70 70 70 70 70 70 69 69 69 68 69 70 69 69 69 69 69 71 71 72 73 73 73 73 73 73 74 74 74 75 75 75 75 74 74 74 74 74 73 72 71 70
22 23 24 21 23 23 22 18 23 18 13 17 20 16 16 14 18 28 18 20 27 35 41 44 46 47 49 50 52 53 54 56 58 59 59 60 60 60 59 60 60 61 62 63 64 65 66 66 67 67 68 68 68 69 70 70 70 70 70 70 70 69 69 69 69 69 70 70 69 69 70 70 70 71 72 73 73 73 73 75 73 73 74 74 74 75 75 75 74 74 74 74 74 73 73 72 70
21 21 21 22 19 19 21 22 15 14 14 15 17 23 21 18 21 24 15 16 23 35 40 42 44 46 48 49 51 53 54 55 57 58 59 60 60 60 60 59 60 61 62 63 64 64 65 66 67 67 67 68 68 69 69 70 70 70 70 70 69 69 69 69 69 69 69 70 70 69 70 70 70 71 72 72 73 73 73 73 73 73 74 74 74 74 75 74 74 74 74 73 73 73 73 72 71
23 20 20 23 19 20 19 19 25 18 18 17 12 19 13 21 14 16 13 15 16 33 42 44 44 45 47 49 51 52 54 55 56 57 59 60 60 60 60 59 60 61 62 63 63 64 64 65 67 67 67 68 68 68 69 69 69 70 70 70 70 70 69 69 69 69 69 69 71 70 70 70 71 71 72 72 73 72 73 73 73 73 73 73 74 74 74 74 74 74 74 73 73 73 73 72 72
18 18 17 19 22 21 19 22 17 17 23 17 15 11 20 24 26 17 15 17 17 27 42 45 46 46 47 49 51 52 54 55 56 57 58 59 60 60 60 60 60 61 62 63 63 64 64 65 66 66 67 67 68 68 69 69 69 69 69 69 69 69 69 69 69 69 69 69 70 71 71 70 71 72 72 72 72 72 72 72 73 73 73 73 73 74 74 74 74 73 73 73 73 73 73 73 72
17 17 17 17 17 17 14 16 19 23 19 17 14 10 23 22 25 18 17 18 17 19 38 45 47 47 48 49 50 52 54 55 56 57 58 59 60 60 60 60 61 61 62 63 63 64 64 64 65 66 66 67 67 68 69 69 69 69 69 69 69 69 69 69 69 69 69 69 69 70 71 71 70 71 72 72 72 73 73 72 72 73 73 73 73 73 74 74 74 73 73 73 73 73 73 72 72